User: anonymous   Login
Location: Malvern Link
(52.1333°N, 2.3000°W)
Time: 14:49:54
(UTC+00:00)
Language:

Cosmos 1125 Rocket - Orbit

View from above orbital plane
View from above orbital plane
View from above satellite
View from above satellite

Ground track
Ground track

The orbit data is extracted from the following two-line orbital elements,

1 11511U 79078B   20333.93946151  .00000090  00000-0  39065-4 0  9995
2 11511  74.0344 157.7789 0014570  93.7854 266.4965 14.36907215159696
Epoch (UTC): 28 November 2020 22:32:49
Eccentricity: 0.0014570
inclination: 74.0344°
perigee height: 758 km
apogee height: 779 km
right ascension of ascending node: 157.7789°
argument of perigee: 93.7854°
revolutions per day: 14.36907215
mean anomaly at epoch: 266.4965°
orbit number at epoch: 15969

The dashed part of the orbit path shows where the satellite is in the earth's shadow,  

DLR